GW5327 Weather Reports


Display with metric or nautical units.
time (UTC)temp
F
wind
direction
speed
MPH
gust
MPH
rain 1hr
in
rain 24hr
in
rain mn
in
humidity
%
barometer
mb
20260508131525 53 29 0.0 0.0 0.00 0.00 0.00 64 1018.1
20260508130022 52 85 0.0 0.0 0.00 0.00 0.00 68 1018.1
20260508124519 50 192 0.0 0.0 0.00 0.00 0.00 74 1018.2
20260508123014 47 210 0.0 0.0 0.00 0.00 0.00 86 1018.1
20260508121510 44 347 0.0 0.0 0.00 0.00 0.00 89 1018.1
20260508120009 42 258 0.0 0.0 0.00 0.00 0.00 91 1018.0
20260508114505 40 259 0.0 0.0 0.00 0.00 0.00 91 1017.9
20260508113004 39 258 0.0 0.0 0.00 0.00 0.00 91 1017.6
20260508111502 38 258 0.0 0.0 0.00 0.00 0.00 92 1017.6
20260508110004 36 258 0.0 0.0 0.00 0.00 0.00 91 1017.5
20260508104606 36 257 0.0 0.0 0.00 0.00 0.00 91 1017.4
20260508103101 36 257 0.0 0.0 0.00 0.00 0.00 91 1017.4
20260508101600 36 257 0.0 0.0 0.00 0.00 0.00 91 1017.3
20260508100058 36 258 0.0 0.0 0.00 0.00 0.00 91 1017.2
20260508094613 37 258 0.0 0.0 0.00 0.00 0.00 91 1017.2
20260508093056 36 258 0.0 0.0 0.00 0.00 0.00 90 1017.1
20260508091553 37 258 0.0 0.0 0.00 0.00 0.00 91 1016.9
20260508090054 36 257 0.0 0.0 0.00 0.00 0.00 90 1016.9
20260508084549 37 258 0.0 0.0 0.00 0.00 0.00 90 1016.8
20260508083048 37 257 0.0 0.0 0.00 0.00 0.00 90 1016.8
20260508081608 37 257 0.0 0.0 0.00 0.00 0.00 90 1016.9
20260508080045 38 258 0.0 0.0 0.00 0.00 0.00 90 1016.8
20260508074544 38 257 0.0 0.0 0.00 0.00 0.00 90 1016.8
20260508073044 37 257 0.0 0.0 0.00 0.00 0.00 89 1016.7
20260508071545 37 257 0.0 0.0 0.00 0.00 0.00 88 1016.7
20260508070039 39 347 0.0 0.0 0.00 0.00 0.00 88 1016.5
20260508064536 39 257 0.0 0.0 0.00 0.00 0.00 88 1016.6
20260508063046 39 260 0.0 0.0 0.00 0.00 0.00 87 1016.7
20260508061533 40 260 0.0 0.0 0.00 0.00 0.00 87 1016.9
20260508060035 39 260 0.0 0.0 0.00 0.00 0.00 86 1016.8
20260508054531 40 260 0.0 0.0 0.00 0.00 0.00 85 1016.7
20260508053026 41 260 0.0 0.0 0.00 0.00 0.00 84 1016.8
20260508051525 41 260 0.0 0.0 0.00 0.00 0.00 84 1016.6
20260508050025 42 260 0.0 0.0 0.00 0.00 0.00 83 1016.8
20260508044526 42 260 0.0 0.0 0.00 0.00 0.00 83 1016.7
20260508043020 42 260 0.0 0.0 0.00 0.00 0.00 81 1016.7
20260508041514 43 260 0.0 0.0 0.00 0.00 0.00 80 1016.6
20260508040012 43 279 0.0 0.0 0.00 0.00 0.00 80 1016.7
20260508034511 44 279 0.0 0.0 0.00 0.00 0.00 80 1016.7
20260508031507 45 280 0.0 0.0 0.00 0.00 0.00 78 1016.5
20260508030006 45 280 0.0 0.0 0.00 0.00 0.00 76 1016.4
20260508023059 47 280 0.0 0.0 0.00 0.00 0.00 73 1016.1
20260508021557 47 280 0.0 0.0 0.00 0.00 0.00 72 1015.9
20260508014556 50 280 0.0 0.0 0.00 0.00 0.00 66 1015.3
20260508013053 51 280 0.0 0.0 0.00 0.00 0.00 63 1015.1
20260508011553 53 279 0.0 0.0 0.00 0.00 0.00 55 1014.9
20260508010054 54 279 0.0 0.0 0.00 0.02 0.00 53 1014.9
20260508004555 55 309 0.0 0.0 0.00 0.02 0.00 48 1014.7
20260508003051 57 256 0.0 0.0 0.00 0.02 0.00 44 1014.5
20260508001550 57 347 0.0 0.0 0.00 0.02 0.00 44 1014.5
20260508000051 59 347 0.0 4.0 0.00 0.04 0.00 42 1014.1
20260507234549 60 266 0.0 3.0 0.00 0.04 0.00 41 1013.9
20260507233049 60 300 0.0 5.0 0.00 0.04 0.00 41 1013.7
20260507231554 61 258 2.0 7.0 0.00 0.04 0.00 42 1013.5
20260507230051 62 268 2.0 5.0 0.00 0.04 0.00 42 1013.7
20260507224550 62 249 1.0 10.0 0.00 0.04 0.00 43 1013.8
20260507223046 63 268 2.0 11.0 0.00 0.04 0.00 42 1013.3
20260507221545 63 8 2.0 8.0 0.00 0.04 0.00 42 1013.4
20260507220045 63 301 3.0 9.0 0.00 0.06 0.00 41 1013.2
20260507214559 62 291 0.0 8.0 0.00 0.06 0.00 47 1013.1
20260507213045 63 322 2.0 10.0 0.00 0.06 0.00 43 1013.0
20260507211543 63 260 1.0 5.0 0.00 0.06 0.00 45 1012.8
20260507210042 64 217 1.0 8.0 0.00 0.07 0.00 43 1012.7
20260507204540 64 322 3.0 8.0 0.00 0.07 0.00 43 1012.6
20260507203047 64 322 2.0 10.0 0.00 0.07 0.00 44 1012.6
20260507201542 63 38 1.0 8.0 0.00 0.07 0.00 45 1012.6
20260507200050 62 217 0.0 11.0 0.00 0.08 0.00 48 1012.7
20260507194535 62 280 3.0 9.0 0.00 0.08 0.00 48 1012.9
20260507193034 64 239 2.0 9.0 0.00 0.08 0.00 45 1012.9
20260507191533 61 278 2.0 8.0 0.00 0.08 0.00 50 1013.3
20260507190030 61 292 0.0 2.0 0.00 0.08 0.00 48 1013.2
20260507184528 63 194 0.0 4.0 0.00 0.08 0.00 52 1013.5
20260507183027 63 215 0.0 0.0 0.00 0.08 0.00 50 1013.5
20260507181530 61 265 0.0 0.0 0.00 0.08 0.00 53 1013.6
20260507180026 62 211 0.0 0.0 0.00 0.09 0.00 53 1013.6
20260507174522 62 300 0.0 0.0 0.00 0.09 0.00 59 1013.9
20260507173030 59 32 0.0 0.0 0.00 0.09 0.00 54 1014.0
20260507171517 60 46 0.0 0.0 0.00 0.09 0.00 60 1014.1
20260507170016 59 315 0.0 0.0 0.00 0.11 0.00 58 1014.3
20260507164515 58 347 0.0 0.0 0.00 0.11 0.00 58 1014.4
20260507163014 59 329 0.0 0.0 0.00 0.11 0.00 59 1014.5
20260507161510 57 40 0.0 0.0 0.00 0.11 0.00 67 1014.6
20260507160010 56 310 0.0 0.0 0.00 0.12 0.00 63 1014.8
20260507154509 57 315 0.0 0.0 0.00 0.12 0.00 67 1014.9
20260507153008 56 71 0.0 0.0 0.00 0.12 0.00 64 1014.7
20260507151508 55 74 0.0 0.0 0.00 0.12 0.00 64 1014.8
20260507150014 55 51 0.0 0.0 0.00 0.12 0.00 65 1014.9
20260507144511 54 18 0.0 0.0 0.00 0.12 0.00 64 1015.1
20260507143001 54 64 0.0 0.0 0.00 0.12 0.00 68 1015.0
20260507141604 54 352 0.0 0.0 0.00 0.12 0.00 74 1015.1
20260507140100 53 331 0.0 0.0 0.00 0.12 0.00 77 1015.3
20260507134559 52 290 0.0 0.0 0.00 0.12 0.00 82 1015.4
20260507133120 52 291 0.0 0.0 0.00 0.12 0.00 86 1015.5